Location: Unspecified
(0.0000°N, 0.0000°E)
Time: 05:41:41
(UTC+00:00)

deb West Ford - Pass Details

Date: 25 May 2026
Orbit: 2163 x 4941 km, 86.7° (Epoch: 8 June)

Event Time Altitude Azimuth Distance (km) Brightness Sun altitude
Exits shadow 02:11:07 23° 336° (NNW) 3,728 ? -51.1°
Drops below altitude 10° 02:14:26 10° 344° (NNW) 4,674 ? -50.4°
Sets 02:17:42 0° 348° (NNW) 5,686 ? -49.8°
